Location: Bannatyne
(13.0833°N, 59.5333°W)
Time: 14:20:51
(UTC+00:00)

Vanguard 3 - Pass Details

Date: 26 January 2020
Orbit: 508 x 3263 km, 33.3° (Epoch: 22 February)

Event Time Altitude Azimuth Distance (km) Brightness Sun altitude
Rises 02:49:07 0° 304° (NW) 6,543 11.9 -69.6°
Reaches altitude 10° 02:54:19 10° 309° (NW) 5,134 11.3 -70.8°
Enters shadow 02:54:42 11° 310° (NW) 5,028 11.2 -70.9°
Maximum altitude 03:07:20 50° 21° (NNE) 1,979 - -73.8°
Drops below altitude 10° 03:14:39 10° 95° (E) 2,978 - -75.4°
Sets 03:16:53 0° 102° (ESE) 3,670 - -75.9°
